Temp
5 5 5 4 4 4 4 4 3 3 3 3 3 3 3 3 3 3 4 4 4 4 4 5 5 5 5 6 6 6 6 7 7 7 6 6 6 6 6 6 6 6 6 6 7 6 6
5 4 4 4 4 3 3 3 3 3 2 2 2 2 2 3 3 3 3 3 4 4 4 4 4 4 5 6 6 6 6 6 6 6 6 6 6 5 5 6 6 6 6 6 6 6 6
4 4 4 3 3 3 3 3 2 2 2 2 2 2 2 2 2 2 2 3 3 4 3 3 3 4 4 5 5 5 5 5 5 5 6 5 5 5 5 5 6 6 5 6 6 6 6
4 3 3 3 2 2 2 2 2 2 2 1 2 1 1 1 1 1 2 2 2 3 3 3 3 3 4 5 5 5 5 5 5 5 5 5 5 5 5 5 5 5 5 5 6 6 6
3 3 2 2 2 2 1 1 1 1 1 0 0 -0 -0 -0 1 1 1 1 1 2 2 2 3 3 4 4 5 4 5 4 4 4 5 4 4 4 4 4 4 4 5 5 6 6 5
3 2 2 1 1 1 0 0 0 -0 -0 -0 -1 -1 -2 -1 -0 1 -0 0 0 2 1 2 2 2 3 5 5 4 4 4 4 4 4 4 3 3 4 4 4 4 4 5 5 6 6
2 2 2 1 0 -0 -0 -0 -1 -1 -1 -1 -2 -2 -3 -2 -1 -1 -0 -1 -1 0 1 2 2 2 3 4 4 4 4 4 4 3 3 3 3 4 5 5 5 4 4 5 5 5 5
2 1 1 1 0 -0 -1 -1 -1 -1 -2 -2 -2 -3 -3 -3 -3 -2 -3 -2 -2 -2 -1 1 2 2 2 3 3 4 3 4 4 4 3 2 3 5 4 3 4 4 4 4 4 5 5
2 1 0 -0 -1 -1 -1 -1 -1 -2 -2 -2 -2 -3 -3 -3 -3 -3 -3 -3 -3 -2 -2 1 2 2 2 2 3 3 3 3 3 3 3 3 4 4 3 3 3 3 3 4 3 4 4
1 0 -0 -1 -1 -1 -1 -1 -1 -2 -2 -2 -3 -3 -3 -4 -4 -3 -3 -3 -3 -3 -2 -0 1 2 2 2 2 3 2 2 2 3 2 2 2 3 3 3 3 3 3 3 3 3 3
0 -1 -1 -1 -1 -1 -1 -1 -2 -2 -3 -3 -3 -3 -3 -4 -4 -4 -3 -3 -4 -3 -4 1 1 1 2 2 2 2 2 2 2 3 2 2 2 2 2 3 3 3 3 3 3 3 2
-0 -1 -1 -0 -0 -0 -1 -1 -2 -2 -3 -3 -3 -3 -3 -4 -4 -4 -4 -4 -5 -4 -5 0 0 0 1 1 1 2 2 1 1 1 1 1 1 2 2 2 2 2 2 2 2 1 -3
-1 -1 -1 -0 -0 -0 -1 -2 -3 -3 -3 -3 -3 -3 -3 -4 -4 -4 -4 -5 -5 -5 -1 -0 1 1 0 0 -0 -0 1 1 1 -1 0 0 1 1 1 1 1 1 2 -1 -3 -4 -4
-1 -1 -1 -1 -1 -2 -3 -3 -4 -4 -4 -4 -3 -3 -4 -4 -5 -4 -6 -5 -5 -3 -1 -2 -1 -0 -0 0 -1 -0 -0 -0 -0 -0 1 0 -0 1 1 1 2 1 1 1 -3 -4 -2
-1 -1 -2 -2 -3 -3 -3 -3 -4 -4 -4 -4 -4 -4 -4 -5 -5 -5 -6 -6 -4 -3 -3 -3 -3 -1 -0 -1 -1 -1 -1 -0 0 0 0 0 0 1 1 1 1 -0 0 2 1 -0 -2
-2 -2 -3 -3 -3 -3 -3 -3 -4 -4 -4 -4 -5 -5 -5 -5 -5 -4 -6 -5 -4 -3 -3 -3 -2 -2 -2 -1 -1 -1 -1 0 -0 -0 0 1 0 -0 -0 -1 -1 0 1 -0 -0 -5 -3
-2 -3 -3 -3 -3 -3 -3 -3 -3 -3 -4 -4 -6 -6 -6 -5 -5 -5 -5 -5 -4 -4 -4 -4 -4 -2 -2 -1 -2 -1 -1 -0 0 1 -0 -0 0 -2 -2 -1 -0 -1 -1 -0 0 1 -4
-3 -3 -3 -3 -3 -3 -3 -3 -3 -3 -3 -4 -5 -5 -6 -5 -6 -5 -5 -4 -5 -5 -5 -5 -5 -4 -3 -3 -3 -3 -1 -1 -0 -1 -1 -1 -0 -0 -1 -1 -1 -2 -1 -0 1 -1 0
-3 -3 -3 -3 -3 -3 -3 -3 -3 -3 -3 -3 -4 -5 -5 -6 -6 -6 -6 -6 -6 -5 -5 -5 -5 -4 -4 -4 -4 -3 -3 -2 -1 -1 -1 -1 -1 -2 -3 -3 -2 -2 -2 -1 -0 0 1
-3 -3 -3 -3 -2 -2 -2 -2 -3 -3 -3 -3 -4 -5 -6 -6 -6 -6 -6 -5 -5 -5 -5 -5 -5 -5 -5 -5 -5 -3 -3 -2 -2 -2 -1 -1 -2 -1 -2 0 1 -1 1 -0 -1 -1 -0
-3 -2 -2 -2 -2 -2 -2 -2 -3 -3 -3 -3 -3 -4 -4 -5 -5 -5 -6 -6 -6 -6 -6 -5 -5 -4 -5 -6 -5 -5 -4 -3 -2 -2 -3 -3 -2 -2 -1 -1 -0 1 1 0 -1 -0 -1
-3 -2 -2 -2 -2 -2 -2 -2 -3 -3 -3 -4 -4 -4 -4 -4 -4 -5 -5 -6 -6 -5 -5 -6 -6 -6 -5 -5 -6 -5 -4 -5 -3 -3 -3 -3 -4 -3 -3 -2 -2 -1 -1 -0 -1 -2 -2
-3 -2 -2 -2 -2 -2 -2 -3 -3 -3 -4 -4 -4 -4 -4 -4 -4 -5 -4 -5 -5 -6 -4 -5 -5 -7 -6 -5 -5 -5 -5 -5 -4 -4 -4 -4 -4 -4 -5 -4 -3 -3 -1 -1 -0 0 1
-3 -2 -3 -3 -3 -3 -2 -3 -3 -3 -3 -4 -4 -4 -4 -4 -5 -5 -5 -5 -5 -6 -6 -5 -4 -5 -5 -5 -6 -6 -6 -6 -5 -5 -5 -5 -5 -6 -6 -5 -5 -3 -2 -2 -1 -1 -1
-3 -3 -3 -3 -3 -2 -2 -3 -3 -3 -3 -4 -4 -5 -5 -4 -4 -4 -5 -5 -5 -5 -5 -5 -5 -5 -5 -5 -6 -6 -6 -6 -6 -6 -6 -7 -6 -6 -6 -6 -4 -3 -3 -2 -1 -1 -1
-3 -3 -3 -3 -3 -3 -3 -3 -3 -4 -4 -4 -5 -5 -6 -5 -5 -5 -5 -5 -5 -5 -5 -5 -6 -5 -6 -6 -7 -6 -6 -5 -6 -6 -6 -7 -6 -7 -7 -7 -7 -4 -3 -3 -2 -3 -2
-3 -3 -3 -3 -3 -3 -3 -3 -3 -3 -4 -4 -5 -6 -7 -7 -6 -6 -7 -6 -6 -6 -6 -7 -6 -6 -6 -7 -8 -7 -6 -5 -5 -5 -4 -5 -6 -6 -6 -7 -5 -4 -3 -3 -5 -3 -3
-3 -3 -3 -3 -3 -3 -3 -3 -3 -3 -4 -5 -5 -7 -8 -9 -8 -8 -8 -7 -8 -8 -7 -7 -7 -6 -7 -8 -8 -7 -6 -6 -5 -5 -4 -5 -6 -6 -7 -8 -8 -5 -5 -5 -4 -4 -4
-4 -4 -3 -3 -3 -3 -3 -3 -4 -5 -5 -5 -6 -8 -9 -10 -10 -10 -9 -9 -9 -8 -8 -8 -9 -8 -7 -8 -8 -8 -7 -7 -6 -6 -5 -6 -6 -6 -7 -6 -6 -6 -6 -6 -6 -5 -5
Height
3106 3105 3104 3102 3101 3099 3097 3095 3094 3093 3092 3090 3090 3090 3089 3089 3089 3089 3090 3090 3091 3091 3092 3093 3094 3095 3096 3098 3100 3102 3102 3104 3106 3109 3110 3112 3114 3116 3116 3118 3119 3119 3122 3124 3125 3127 3127
3103 3101 3100 3098 3097 3095 3093 3091 3089 3088 3088 3087 3086 3085 3085 3084 3085 3085 3086 3086 3087 3087 3088 3089 3089 3090 3091 3095 3095 3098 3099 3101 3103 3105 3106 3109 3111 3113 3113 3114 3115 3115 3118 3120 3121 3123 3124
3099 3097 3095 3093 3092 3090 3089 3087 3085 3084 3083 3082 3081 3080 3079 3079 3079 3080 3080 3080 3081 3083 3083 3085 3085 3084 3085 3091 3091 3093 3095 3097 3099 3102 3103 3106 3107 3109 3109 3111 3111 3113 3115 3116 3117 3119 3119
3095 3092 3090 3088 3086 3085 3083 3081 3079 3078 3076 3075 3075 3075 3076 3075 3074 3074 3075 3075 3075 3076 3077 3079 3079 3080 3080 3082 3085 3089 3090 3093 3095 3097 3100 3101 3103 3106 3106 3107 3109 3110 3111 3111 3113 3115 3116
3090 3088 3085 3083 3081 3079 3077 3075 3073 3071 3070 3069 3068 3067 3065 3067 3070 3069 3069 3070 3070 3071 3071 3072 3073 3074 3076 3077 3080 3083 3085 3088 3090 3092 3094 3097 3099 3100 3103 3104 3106 3105 3104 3106 3109 3111 3111
3085 3083 3081 3080 3078 3075 3073 3071 3068 3066 3064 3062 3061 3061 3061 3061 3061 3062 3063 3063 3064 3065 3066 3068 3068 3072 3071 3074 3075 3077 3080 3082 3085 3088 3090 3093 3093 3094 3096 3097 3094 3098 3101 3104 3104 3106 3106
3081 3080 3078 3076 3074 3072 3070 3067 3065 3062 3060 3057 3055 3054 3055 3056 3056 3055 3058 3058 3061 3061 3060 3063 3062 3064 3066 3069 3071 3073 3073 3076 3079 3082 3084 3085 3086 3086 3087 3093 3097 3100 3100 3101 3100 3101 3102
3079 3077 3075 3073 3071 3069 3066 3063 3060 3057 3055 3053 3051 3049 3049 3050 3052 3050 3050 3052 3052 3055 3054 3055 3057 3058 3061 3063 3065 3067 3069 3071 3072 3075 3077 3080 3077 3083 3088 3092 3093 3095 3097 3097 3098 3098 3098
3076 3074 3073 3071 3068 3064 3061 3058 3055 3051 3050 3048 3047 3045 3044 3045 3045 3046 3046 3046 3047 3048 3048 3048 3050 3051 3055 3059 3059 3061 3065 3065 3067 3069 3071 3072 3075 3078 3081 3084 3087 3088 3091 3093 3097 3096 3094
3074 3072 3069 3066 3063 3060 3057 3053 3050 3047 3045 3043 3041 3040 3038 3040 3042 3041 3041 3041 3042 3044 3043 3040 3040 3043 3047 3050 3050 3056 3059 3062 3061 3063 3068 3068 3072 3073 3075 3076 3082 3083 3086 3089 3091 3092 3090
3071 3069 3065 3062 3059 3056 3052 3048 3045 3043 3040 3037 3036 3035 3033 3032 3035 3036 3038 3037 3038 3039 3039 3034 3031 3033 3037 3042 3045 3047 3052 3053 3055 3059 3061 3061 3062 3065 3069 3071 3076 3079 3082 3085 3087 3087 3086
3067 3064 3061 3058 3055 3051 3046 3042 3039 3036 3033 3031 3030 3029 3028 3027 3028 3031 3032 3033 3035 3040 3033 3027 3027 3028 3032 3034 3037 3041 3044 3047 3051 3054 3054 3057 3060 3061 3063 3067 3071 3074 3079 3081 3082 3083 3080
3063 3061 3057 3054 3050 3046 3042 3038 3034 3030 3027 3025 3023 3022 3022 3022 3024 3026 3028 3030 3034 3030 3029 3026 3025 3025 3027 3029 3031 3035 3038 3039 3043 3047 3048 3050 3053 3055 3059 3062 3065 3068 3073 3079 3084 3083 3072
3060 3057 3053 3051 3047 3044 3040 3036 3033 3028 3024 3021 3017 3015 3016 3017 3018 3021 3023 3027 3025 3022 3023 3020 3025 3023 3024 3026 3028 3031 3034 3034 3037 3040 3041 3043 3048 3049 3051 3054 3056 3059 3064 3064 3074 3072 3063
3057 3053 3051 3048 3046 3043 3040 3036 3032 3028 3023 3017 3012 3010 3010 3011 3014 3016 3019 3018 3018 3019 3020 3020 3022 3022 3022 3022 3026 3026 3029 3028 3030 3033 3037 3037 3040 3041 3043 3047 3053 3053 3055 3061 3059 3060 3060
3054 3052 3050 3048 3046 3043 3041 3038 3032 3026 3019 3010 3007 3005 3006 3008 3010 3012 3012 3013 3015 3015 3017 3018 3019 3020 3020 3021 3023 3022 3023 3022 3022 3025 3030 3034 3035 3035 3037 3041 3044 3046 3050 3054 3055 3060 3059
3052 3052 3050 3049 3047 3045 3043 3038 3032 3025 3015 3005 3003 3004 3005 3007 3008 3010 3011 3012 3012 3012 3015 3016 3015 3017 3017 3018 3018 3018 3018 3020 3019 3019 3024 3029 3031 3032 3033 3032 3033 3037 3039 3043 3045 3044 3045
3053 3052 3050 3049 3047 3045 3043 3038 3032 3026 3019 3012 3007 3008 3007 3007 3010 3009 3010 3012 3013 3012 3013 3013 3013 3012 3013 3014 3015 3015 3016 3017 3016 3017 3019 3022 3025 3024 3027 3026 3028 3030 3032 3034 3035 3034 3034
3054 3052 3051 3050 3048 3046 3042 3037 3031 3027 3022 3017 3012 3010 3008 3008 3009 3010 3010 3009 3009 3009 3010 3010 3010 3010 3010 3010 3012 3009 3010 3011 3013 3015 3016 3018 3019 3021 3021 3023 3021 3021 3022 3026 3028 3029 3026
3054 3052 3051 3050 3048 3045 3041 3037 3032 3028 3023 3020 3016 3012 3010 3010 3009 3008 3008 3007 3007 3005 3005 3004 3004 3005 3005 3006 3006 3006 3005 3007 3008 3010 3011 3012 3012 3010 3007 3009 3011 3012 3012 3015 3020 3022 3018
3053 3053 3052 3050 3047 3044 3041 3036 3032 3027 3024 3022 3018 3016 3013 3011 3009 3008 3006 3004 3002 3001 3001 2998 2995 2996 2998 2996 2998 2997 3001 3002 3003 3004 3005 3007 3004 3006 3006 3006 3006 3005 3006 3007 3009 3008 3011
3052 3053 3053 3050 3046 3043 3039 3036 3031 3027 3024 3022 3019 3016 3013 3010 3008 3005 3004 3002 3001 2999 2997 2995 2992 2991 2990 2989 2991 2991 2993 2995 2996 2996 3000 2999 2999 3001 3001 3001 3002 3000 3000 3001 3002 3004 3004
3052 3053 3052 3048 3045 3041 3038 3034 3031 3027 3023 3020 3016 3014 3011 3010 3005 3003 3001 3000 2997 2995 2994 2992 2990 2988 2985 2985 2985 2984 2985 2987 2987 2990 2992 2994 2995 2998 2996 2996 2995 2993 2990 2994 2996 2996 2999
3051 3051 3049 3046 3043 3039 3036 3032 3028 3024 3021 3018 3015 3012 3008 3004 3002 3000 2997 2995 2993 2992 2989 2987 2986 2985 2985 2982 2981 2980 2978 2979 2979 2980 2983 2983 2986 2990 2989 2992 2992 2984 2984 2987 2987 2990 2992
3050 3048 3046 3044 3040 3037 3034 3029 3024 3021 3017 3013 3010 3007 3003 2997 2996 2995 2992 2990 2989 2987 2985 2983 2981 2981 2979 2979 2978 2977 2975 2975 2974 2974 2976 2978 2980 2982 2984 2983 2979 2978 2980 2982 2982 2984 2983
3048 3047 3044 3041 3037 3033 3031 3026 3021 3015 3011 3007 3003 2999 2995 2992 2989 2986 2984 2983 2981 2980 2979 2977 2976 2975 2974 2974 2974 2975 2974 2973 2972 2971 2972 2974 2975 2978 2978 2979 2978 2974 2972 2974 2976 2973 2976
3046 3044 3041 3038 3033 3030 3026 3020 3015 3009 3003 2998 2993 2989 2986 2983 2981 2979 2977 2976 2975 2974 2972 2971 2971 2971 2970 2969 2970 2970 2969 2970 2968 2967 2966 2968 2971 2972 2973 2974 2972 2971 2971 2970 2972 2974 2968
3044 3041 3038 3034 3030 3025 3020 3014 3007 3001 2995 2990 2986 2980 2978 2975 2972 2971 2970 2969 2968 2968 2968 2968 2969 2966 2966 2966 2966 2965 2964 2964 2964 2963 2963 2965 2965 2965 2968 2969 2969 2966 2966 2969 2968 2966 2966
3041 3038 3035 3031 3025 3020 3015 3008 3001 2995 2989 2984 2979 2973 2970 2968 2966 2964 2963 2962 2961 2961 2961 2960 2963 2963 2962 2962 2962 2962 2962 2961 2960 2960 2960 2963 2963 2962 2964 2963 2961 2961 2962 2962 2962 2964 2964
Wind_Speed
16 17 18 19 21 22 22 22 21 20 21 21 20 21 21 20 19 18 19 18 19 18 19 20 21 22 22 22 21 13 10 16 20 18 17 17 16 16 16 16 16 16 16 16 16 17 17
18 21 23 23 24 24 24 23 22 21 21 22 23 23 23 23 22 21 20 20 21 19 19 20 21 22 23 23 21 20 21 17 11 16 19 19 18 16 17 18 17 15 15 17 15 16 16
24 25 24 26 26 26 25 25 24 26 26 25 24 24 25 24 24 23 22 22 21 22 20 21 22 23 24 21 21 20 21 19 18 15 17 18 20 21 21 19 20 15 16 17 15 15 17
25 25 25 26 25 26 26 26 27 28 27 26 27 30 26 25 24 24 22 23 23 22 21 23 23 24 25 23 23 23 21 19 20 20 18 19 21 21 21 19 16 15 19 20 17 16 18
24 24 23 22 22 23 23 23 23 24 25 26 26 25 25 28 26 25 24 24 26 25 22 22 24 24 25 25 24 22 23 22 20 22 22 20 21 24 24 20 18 19 17 17 16 17 16
20 19 18 19 20 20 21 22 23 23 23 24 24 24 23 22 26 27 25 23 21 24 25 25 24 22 24 20 25 23 24 24 25 23 24 25 26 27 28 29 26 20 20 19 20 18 17
17 17 16 16 16 18 20 22 23 25 24 23 24 23 20 21 24 27 24 26 22 22 24 23 23 19 24 14 25 18 23 27 26 27 27 29 31 34 35 30 27 14 14 15 14 18 17
15 14 15 15 17 20 22 23 23 23 23 25 23 22 21 20 23 22 19 18 22 23 27 27 25 27 24 20 23 18 23 25 28 31 30 28 34 31 29 25 28 27 23 21 14 14 17
13 14 15 15 18 23 24 24 25 24 23 24 23 21 20 19 21 22 19 19 14 19 25 31 29 26 24 27 27 22 21 23 25 29 33 35 29 24 32 27 25 26 26 30 23 15 18
13 14 14 19 22 25 25 27 27 25 22 22 21 21 21 21 21 19 17 21 21 17 14 21 30 35 30 28 31 29 24 21 27 26 28 28 32 29 16 29 27 27 25 23 23 24 18
14 15 18 22 22 25 28 29 28 25 25 25 23 22 22 21 20 20 17 17 14 13 4 10 22 26 28 32 30 30 28 28 28 25 26 23 24 30 31 25 27 29 26 25 24 26 25
16 19 20 23 25 29 29 28 27 25 25 23 22 20 17 19 19 18 16 16 15 10 8 6 9 18 23 28 32 28 31 31 31 28 22 28 20 20 24 30 25 26 21 16 19 19 8
18 20 22 24 25 25 23 22 22 23 23 24 24 22 18 18 15 13 15 14 9 8 3 7 9 14 17 24 30 27 28 35 31 25 29 26 33 29 21 23 25 27 22 4 1 2 7
18 20 22 20 20 21 21 22 21 21 22 23 19 18 15 13 16 14 15 14 12 8 14 5 8 11 11 15 25 27 26 29 37 27 18 29 15 34 29 29 28 32 29 12 8 5 5
18 17 17 18 19 21 22 24 25 22 24 26 19 16 13 12 13 15 20 20 9 11 7 17 8 9 10 14 13 16 26 32 35 37 23 18 19 20 34 32 29 29 34 30 7 3 1
13 13 14 18 18 19 22 24 26 24 30 26 13 14 7 11 11 10 13 19 15 12 12 7 10 9 7 11 18 13 14 11 28 34 38 19 9 17 23 26 31 29 29 17 16 3 4
12 12 15 16 16 19 20 21 25 33 36 22 8 6 2 6 9 13 14 24 13 19 16 17 9 14 10 11 9 21 9 11 9 14 28 36 18 10 21 26 33 34 29 20 15 16 6
13 13 15 16 16 17 19 23 26 27 36 25 20 9 9 7 9 14 17 15 13 14 14 12 13 16 24 23 21 9 13 17 7 19 24 35 17 22 22 17 28 33 34 37 18 9 19
11 12 13 14 14 16 19 22 23 25 26 30 24 16 14 7 6 11 12 16 19 21 20 19 11 8 11 17 13 17 21 18 16 15 15 27 19 10 6 18 23 31 38 38 39 23 25
9 11 11 12 13 15 18 20 22 23 23 22 22 20 13 11 8 13 14 17 22 24 26 29 30 29 26 23 22 13 18 17 21 22 17 22 28 22 19 14 14 26 36 37 41 29 29
10 10 10 11 13 15 18 20 20 21 20 20 18 13 14 8 8 10 19 12 13 15 12 15 21 23 24 30 23 29 29 24 24 15 22 24 23 24 29 16 17 18 17 28 45 49 26
9 9 11 12 14 16 17 18 20 21 21 19 17 16 14 10 12 10 9 13 11 11 15 16 12 15 14 32 30 16 23 29 26 22 19 23 17 16 21 26 29 25 21 20 23 39 49
9 10 12 13 14 16 17 18 19 19 20 20 19 18 18 14 13 14 13 13 15 17 13 14 19 19 19 16 16 27 32 29 26 28 28 35 27 21 22 15 13 22 33 34 32 29 26
9 11 14 15 16 17 18 19 21 22 22 21 21 21 21 21 17 16 20 22 14 19 21 21 17 18 17 15 15 15 18 22 28 32 27 24 28 23 7 11 7 19 17 19 20 23 27
10 12 14 16 17 20 23 24 26 28 29 28 26 24 25 27 24 21 11 18 23 16 18 19 19 17 16 18 15 9 7 7 11 17 22 17 19 11 8 18 18 13 9 11 15 21 27
12 15 16 16 19 23 27 30 32 33 35 34 31 28 27 27 25 26 26 20 19 23 22 17 11 12 14 14 13 7 5 5 5 5 19 21 21 22 11 4 6 5 13 28 29 29 30
15 16 17 20 24 28 32 34 36 37 38 36 32 29 28 27 28 23 25 26 25 24 21 16 12 12 12 14 12 10 10 10 6 8 10 22 31 28 22 7 7 12 16 14 9 8 14
14 16 20 25 28 31 34 37 38 37 34 33 31 27 25 26 27 27 24 17 15 18 20 20 21 19 14 12 8 8 10 10 11 15 11 10 9 14 17 10 12 17 17 16 15 10 9
16 19 23 28 30 32 34 36 36 34 33 33 29 24 21 20 23 24 24 24 24 22 21 20 18 14 7 7 10 8 8 7 9 5 12 8 11 5 10 7 11 9 10 14 16 16 11
Wind_Direction
320 320 317 316 314 311 309 307 302 292 281 276 274 270 267 263 260 258 257 255 251 244 240 236 236 237 238 236 233 235 227 228 233 232 235 234 229 232 228 233 234 235 243 240 246 247 247
313 313 311 310 309 305 304 302 298 296 293 287 278 274 269 265 263 257 254 253 254 248 247 246 240 238 238 240 237 233 234 236 235 231 230 235 230 226 226 229 229 234 240 246 245 250 251
311 309 308 306 305 303 301 298 296 296 293 292 288 279 272 268 264 261 256 251 246 250 248 247 246 242 241 236 240 237 235 235 233 230 226 229 234 227 225 226 236 242 248 248 244 252 254
308 308 308 305 305 304 303 300 297 296 294 290 283 285 288 279 271 266 262 257 250 243 246 248 248 248 245 240 237 237 237 234 234 232 231 223 231 232 228 227 235 235 242 246 248 252 254
308 309 310 311 309 310 311 310 306 302 297 292 286 278 264 261 279 273 268 263 258 250 245 245 247 247 250 246 241 240 240 237 233 231 228 224 222 225 224 224 230 231 234 241 251 251 247
311 313 313 316 317 320 321 318 317 313 306 296 287 280 276 276 257 257 272 267 264 253 248 250 247 248 243 246 243 239 237 236 235 231 225 222 219 219 224 220 220 221 229 243 248 253 250
315 317 322 324 330 330 325 323 321 317 310 304 295 285 281 274 272 246 255 260 259 264 257 252 252 250 247 244 240 235 231 232 231 226 227 223 218 223 230 233 237 242 241 243 257 245 244
323 331 334 334 328 325 323 322 320 316 312 307 298 290 282 277 267 278 258 259 257 259 256 255 253 245 245 243 241 238 231 226 228 229 224 221 227 238 240 241 242 239 235 241 257 232 237
339 335 324 319 323 327 323 321 317 315 312 309 304 295 280 273 272 268 272 253 252 252 256 241 248 250 247 244 245 244 244 238 235 230 228 233 243 239 237 237 232 236 238 243 249 246 240
326 316 320 325 322 324 325 321 318 308 306 310 301 298 290 277 269 273 281 254 250 262 253 253 248 247 237 236 241 240 237 238 231 234 231 237 235 234 224 231 229 234 239 244 246 252 249
321 323 323 326 327 328 327 322 318 311 302 306 300 294 286 271 273 266 270 256 252 247 276 243 226 230 229 226 237 235 234 230 229 231 218 218 232 229 230 229 228 239 240 240 246 247 249
329 325 325 326 321 324 325 322 319 316 311 307 300 290 291 285 270 262 253 258 242 190 253 222 214 219 216 215 221 226 226 223 224 223 226 227 231 231 232 230 226 232 233 225 224 233 253
330 329 334 330 326 329 334 333 336 332 322 310 299 286 275 286 271 254 245 238 182 209 181 242 225 228 224 219 215 219 220 216 212 206 214 221 228 231 227 222 221 220 212 133 226 203 229
323 330 335 335 347 352 355 355 354 349 344 334 318 287 272 263 252 249 237 221 213 259 220 193 278 249 229 222 229 230 224 224 219 215 222 214 224 228 228 223 220 215 204 181 196 199 228
329 343 348 360 7 10 13 9 354 348 341 338 318 306 272 246 243 242 254 203 221 226 257 250 232 274 265 219 218 227 239 239 236 222 217 212 227 232 227 226 220 208 207 219 235 207 228
4 12 20 20 21 24 16 10 11 359 349 332 313 314 250 232 228 266 214 203 207 212 199 189 222 231 245 240 219 218 231 263 245 232 226 223 228 221 217 219 218 218 214 199 208 166 240
37 45 41 34 29 19 11 7 6 8 1 4 353 29 267 227 207 226 219 221 231 237 263 259 224 229 227 226 232 237 237 255 247 245 221 223 228 225 212 216 218 212 209 210 211 226 185
66 50 46 40 32 21 11 10 11 9 19 25 31 33 336 268 219 234 242 243 234 264 285 276 282 273 244 252 244 235 235 239 262 233 212 218 235 238 232 231 224 222 223 220 211 206 223
63 49 35 23 13 360 1 6 9 12 13 25 29 21 15 336 221 233 257 265 266 265 266 269 257 259 264 260 258 261 228 249 251 253 224 219 222 227 235 239 229 223 226 227 225 238 234
61 41 24 13 5 0 1 3 6 9 12 14 22 28 14 16 331 275 290 261 257 262 267 263 267 271 266 250 236 242 241 247 250 250 256 218 219 221 230 241 225 223 235 229 226 229 233
51 38 16 1 355 351 349 353 356 1 5 6 10 10 19 28 22 360 346 308 306 295 300 318 281 272 262 248 246 247 247 252 242 252 230 226 227 235 239 238 230 235 243 239 225 228 222
37 4 344 347 345 343 344 349 353 355 355 353 354 352 347 343 332 321 317 351 342 328 313 319 318 328 266 243 240 236 240 247 253 242 241 230 236 245 251 247 249 250 247 245 240 238 235
7 345 336 342 341 344 345 347 347 346 344 342 342 335 330 328 324 314 318 313 307 311 316 306 301 312 331 264 259 250 249 250 244 240 231 239 240 241 253 255 253 264 250 246 247 250 252
351 336 337 343 340 338 338 341 340 338 336 333 328 323 318 315 312 308 302 296 300 300 291 297 298 305 302 311 306 313 265 253 240 242 237 229 231 214 230 192 229 252 253 249 253 253 253
342 335 335 334 339 340 336 337 336 332 329 326 323 318 311 306 305 306 285 293 294 286 293 297 295 287 284 281 290 311 295 277 256 241 226 225 231 211 203 207 253 235 237 249 260 265 257
338 329 331 337 337 335 330 329 328 325 322 318 312 306 300 298 302 297 296 292 292 294 296 299 295 291 281 267 258 249 237 280 247 230 226 226 236 214 192 203 222 249 245 241 246 257 259
329 329 334 336 334 332 328 327 326 326 323 320 314 305 295 291 289 289 287 289 289 289 290 292 294 298 279 258 237 238 239 231 235 225 224 216 230 233 243 236 257 251 258 257 216 246 241
332 336 334 332 332 330 328 329 329 329 328 325 320 310 298 291 287 285 286 285 284 285 284 282 289 285 264 237 237 237 233 231 239 245 252 242 211 228 227 222 245 242 247 240 245 254 279
334 335 333 332 331 331 331 332 332 334 334 333 331 323 311 300 292 290 287 285 285 281 276 272 259 258 257 232 227 233 243 252 244 247 246 231 223 218 210 221 240 248 252 258 256 256 256